Regional Weather Roundup
Issued by NWS

Home | Current Version | Previous Version | Graphics & Text | Print | Product List | Glossary On
Versions: 1 2 3 4 5 6 7 8 9 10 11 12 13 14 15 16 17 18 19 20 21 22 23 24 25 26 27 28 29 30 31 32 33 34 35 36 37 38 39 40 41 42 43 44 45 46 47 48 49 50
000
ASUS45 KBOU 042007
RWRCO

WEATHER ROUNDUP FOR COLORADO
NATIONAL WEATHER SERVICE DENVER/BOULDER CO
100 PM MST WED MAR 04 2015

NOTE: "FAIR" INDICATES FEW OR NO CLOUDS BELOW 12000 FEET WITH NO
SIGNIFICANT WEATHER AND/OR OBSTRUCTIONS TO VISIBILITY.

COZ001>005-013-030-031-042100-
...NORTHWEST COLORADO...

CITY           SKY/WX    TMP DP  RH WIND       PRES   REMARKS
CRAIG          CLOUDY    21  14  74 SW9       30.10F WCI  11
HAYDEN         PTSUNNY   19  10  68 W12       30.07S WCI   7
MEEKER         LGT SNOW  25  15  66 NW9       30.07F WCI  15
MOUNT WERNER   NOT AVBL
STEAMBOAT SPGS NOT AVBL
WALDEN         NOT AVBL
$$

COZ006>008-011-042100-
...WEST CENTRAL VALLEYS...

CITY           SKY/WX    TMP DP  RH WIND       PRES   REMARKS
GRAND JUNCTION MOSUNNY   37  15  40 VRB5      30.09F
MONTROSE       PTSUNNY   32  18  56 SE9       30.07F WCI  24
EAGLE          PTSUNNY   28  10  47 W15G21    30.04  WCI  17
RIFLE          PTSUNNY   33  15  47 N10G21    30.08R WCI  25
DELTA          CLOUDY    41  14  32 W15       30.05F
NUCLA          MOSUNNY   36  16  44 CALM      30.08F
$$

COZ017>023-064>068-042100-
...SOUTHWEST COLORADO...

CITY           SKY/WX    TMP DP  RH WIND       PRES   REMARKS
DURANGO        SUNNY     35  15  44 W14       29.93F WCI  26
CORTEZ         SUNNY     37  19  48 NW8       30.03S
PAGOSA SPRINGS CLOUDY    33  17  53 S3        29.92F
TELLURIDE      PTSUNNY   23  12  62 W12       29.97S WCI  12
WOLF CREEK PAS NOT AVBL
$$

COZ009-010-012-014-032>034-037-058>063-042100-
...CENTRAL COLORADO...

CITY           SKY/WX    TMP DP  RH WIND       PRES   REMARKS
ASPEN          FLURRIES  22   7  52 NW13G21   29.97S WCI  10
BUENA VISTA    PTSUNNY   21  14  73 E15       29.90F WCI   8
COPPER MTN     NOT AVBL
BERTHOUD PASS  NOT AVBL
COTTONWOOD PAS NOT AVBL
GUNNISON       PTSUNNY   25  12  58 SW16      29.98F WCI  12
KREMMLING      NOT AVBL
LEADVILLE      LGT SNOW   9   1  70 W16G24    29.85F WCI  -8
SALIDA         NOT AVBL
SUNLIGHT       NOT AVBL
WILKERSON PASS NOT AVBL
$$

COZ069>075-042100-
...SAN LUIS VALLEY/SANGRE DE CRISTO MOUNTAINS...

CITY           SKY/WX    TMP DP  RH WIND       PRES   REMARKS
ALAMOSA        MOSUNNY   33  13  43 CALM      29.87
LA VETA PASS   NOT AVBL
SAGUACHE       NOT AVBL
$$

COZ035-036-038>040-042100-
...NORTHERN COLORADO FRONT RANGE...

CITY           SKY/WX    TMP DP  RH WIND       PRES   REMARKS
DENVER INTL AP MOSUNNY   15   6  67 SE8       30.12S WCI   4
DMNS CITY PARK   N/A     17   7  66 E10       30.11F WCI   4
AURORA         NOT AVBL
FRONT RANGE AP MOSUNNY   18   7  62 SE6       30.12  WCI   9
ERIE MUNI ARPT NOT AVBL
BOULDER MUN AP NOT AVBL
CENTENNIAL     CLOUDY    16   6  65 NE6       30.07F WCI   7
BROOMFIELD     LGT SNOW  16   9  73 E5        30.11  WCI   9
FORT COLLINS   PTSUNNY   18   9  68 S3        30.16F
LONGMONT       NOT AVBL
$$

COZ041-046-047-076>085-087-088-042100-
...PIKES PEAK/PALMER DIVIDE AND SOUTHERN FOOTHILLS...

CITY           SKY/WX    TMP DP  RH WIND       PRES   REMARKS
COLO. SPRINGS  LGT SNOW  14   8  77 SE15      30.07F WCI  -1
A. F. ACADEMY  LGT SNOW  13   6  74 SE12      30.02F WCI  -1
ELLICOTT       NOT AVBL
FALCON         NOT AVBL
FORT CARSON    NOT AVBL
LIMON          MOSUNNY   15   1  53 CALM      30.13F
MONUMENT HILL  NOT AVBL
TRINIDAD       LGT SNOW  16  10  77 NE12      30.09F WCI   3
$$

COZ042>045-048>051-090-091-042100-
...NORTHEAST COLORADO...

CITY           SKY/WX    TMP DP  RH WIND       PRES   REMARKS
GREELEY ARPT   MOSUNNY   19   0  42 NW3       30.16F
AKRON          SUNNY     21   5  50 N9        30.14F WCI  11
BURLINGTON     SUNNY     24   7  48 N14       30.18F WCI  12
WRAY           SUNNY     29   7  39 NW9       30.21F WCI  20
STERLING       NOT AVBL
HOLYOKE        NOT AVBL
FORT MORGAN    MOSUNNY   24   6  45 NW3       30.17F
$$

COZ086-089-092>099-042100-
...SOUTHEAST COLORADO...

CITY           SKY/WX    TMP DP  RH WIND       PRES   REMARKS
PUEBLO         CLOUDY    19  13  77 SE8       30.16F WCI   9
LA JUNTA       LGT SNOW  20  14  77 NE12      30.20F WCI   8
LAMAR          LGT SNOW  20  14  77 NE5       30.22F VSB 3/4 WCI  13
SPRINGFIELD      N/A     20  15  81 NE13      30.16F WCI   7
$$



USA.gov is the U.S. government's official web portal to all federal, state and local government web resources and services.